Starlink 4078

operational
NORAD ID: 52689 Int'l Des: 2022-053 Owner: SPXS Country: US Constellation: starlink
LEOCIRCULAR

About Starlink 4078

Description loading...

Live Position

Loading 3D Globe...

Upcoming Passes

Altitude History

Altitude vs Time

uPlot chart will show altitude changes over time

Two-Line Element Set

1 52689U 22053AK 25306.34858419 .00038825 00000-0 10297-2 0 9997
2 52689 53.2180 327.9810 0002526 51.0060 309.1169 15.37966910192321
Epoch: Nov 2, 2025 • Age: 31 hours

Current Status

Altitude 460.5 km
Velocity 7.64 km/s
Sub-Earth Point -28.70°S, 23.77°E
Launch Date May 18, 2022
Age 3.4 years
Type internet

Technical Details

Classification Payload
Mass 297.00 kg
Dry Mass 275.00 kg
Total Mass 297.00 kg
Length 0.20 m
Diameter 2.80 m
Span 9.00 m
Shape Box + pan
Manufacturer SPXS
Bus Type Starlink
Phase Status In Orbit
Owner/State SPXS/US

Large Constellations

Loading constellations...